Temp
65 64 63 62 51 46 40 47 50 54 56 59 64 63 61 60 59 53 63 66 65 67 70 72 74 75 75 75 74 75 75 75 75 75 75 75 75 75 75 75 74 75 75 75 74 74 73 72 72
62 67 62 53 45 38 41 47 53 57 61 60 62 61 59 58 60 61 61 66 68 68 70 71 72 74 75 74 74 74 75 75 75 75 75 75 75 75 75 75 74 75 75 74 74 73 72 71 71
64 65 57 50 42 42 42 50 56 59 62 59 57 59 61 59 60 63 64 67 68 68 69 71 72 74 74 74 74 74 74 74 74 75 75 75 75 75 74 74 74 74 74 74 73 72 71 71 71
61 60 54 45 42 46 51 54 55 57 60 62 59 56 59 64 62 65 67 68 67 67 68 69 72 74 74 73 73 74 74 74 74 74 74 74 74 74 74 74 74 74 73 73 72 71 71 70 70
57 52 44 40 44 48 52 56 55 57 58 58 59 57 56 62 65 65 66 68 66 66 67 69 71 73 73 73 73 73 73 74 74 74 74 74 73 73 73 73 73 72 72 72 71 70 70 69 69
52 50 39 42 44 51 54 57 57 57 59 58 56 56 56 60 62 64 67 66 68 67 67 68 67 69 71 72 72 72 73 73 73 73 73 73 73 73 72 72 72 72 72 71 71 70 70 69 70
46 43 43 41 46 53 55 58 57 59 56 59 61 56 55 57 61 65 66 66 68 69 69 68 68 68 67 69 69 70 71 72 72 72 72 72 72 72 71 71 71 71 71 71 70 70 70 70 70
51 51 41 45 46 50 55 58 60 60 60 61 63 55 55 59 62 63 65 66 69 69 70 70 68 68 67 67 66 67 69 69 70 69 68 67 67 71 70 68 69 71 71 71 70 70 69 69 69
60 46 44 47 46 51 55 56 59 60 60 57 60 59 60 62 62 62 64 65 67 68 69 71 69 69 65 65 64 65 65 66 66 65 64 63 62 63 63 63 65 68 69 69 70 69 69 67 65
49 41 46 51 51 52 59 57 59 57 55 55 56 59 61 60 60 60 61 62 64 66 67 70 69 68 66 67 64 63 64 63 63 63 62 61 61 61 63 60 62 64 64 66 68 68 67 63 59
45 43 51 54 57 59 56 57 62 56 52 57 58 57 57 58 59 59 60 61 63 68 69 69 68 69 67 65 64 61 61 61 61 61 61 60 61 59 59 59 59 59 57 58 60 59 58 58 58
40 48 51 53 58 56 54 55 56 58 61 62 62 59 59 58 58 59 59 61 62 67 68 69 69 67 66 64 64 61 61 60 60 60 60 59 58 58 58 58 58 58 58 57 57 57 58 58 59
41 45 50 53 53 53 55 52 54 55 62 60 60 60 59 59 60 60 61 62 63 64 67 66 67 67 66 63 62 61 60 60 59 59 60 59 58 57 57 58 58 57 57 57 57 57 58 58 59
44 45 46 50 51 50 49 50 56 54 58 58 59 58 59 59 60 58 60 61 64 67 67 67 66 67 67 64 61 61 60 60 59 59 59 60 59 58 58 58 58 58 58 58 58 58 58 58 58
45 39 44 47 49 50 52 48 52 54 56 57 58 58 59 59 58 59 61 62 67 68 68 67 66 66 65 63 61 60 60 60 59 59 60 60 60 60 60 59 58 58 58 59 58 58 58 58 59
41 42 35 44 48 50 49 40 53 56 54 56 58 55 56 57 58 58 60 62 65 66 66 67 67 65 61 61 61 60 60 60 59 59 60 61 61 61 59 59 59 59 59 59 58 58 58 57 58
38 33 36 38 49 49 47 43 49 55 54 53 56 56 56 56 57 59 61 61 62 63 63 63 64 62 61 61 61 61 61 60 60 60 60 61 61 61 60 59 59 60 59 58 58 58 58 58 59
30 33 36 35 44 46 43 45 47 52 51 52 54 55 55 55 57 59 60 61 61 62 63 63 63 62 62 61 60 60 60 59 59 59 60 61 61 61 60 59 59 59 58 58 58 58 59 59 60
38 37 34 37 46 43 43 44 46 48 49 49 47 52 55 55 57 59 61 61 61 60 61 61 61 61 61 58 59 58 60 58 59 59 60 61 61 61 60 59 60 61 61 62 61 60 59 58 60
35 33 34 40 45 46 44 42 45 46 45 49 49 49 48 51 53 54 58 60 61 60 60 61 62 61 62 62 59 59 58 59 60 61 61 62 62 64 65 64 64 64 62 62 62 61 60 61 61
33 32 33 38 43 42 42 37 40 44 45 48 52 51 50 49 49 54 56 56 58 58 58 59 60 62 62 62 61 61 60 60 59 60 61 65 67 67 66 65 65 64 63 62 62 61 60 60 60
34 40 36 39 38 33 37 29 33 39 40 43 47 50 46 48 50 50 53 53 53 54 57 58 59 60 60 61 61 61 60 58 60 61 63 65 66 66 65 65 64 64 63 62 62 62 61 60 59
36 42 38 39 35 35 33 31 33 38 36 39 43 48 49 48 48 48 49 51 52 53 53 56 57 57 57 58 59 59 60 60 61 61 61 62 62 63 62 63 63 63 63 63 62 60 60 59 57
44 40 40 38 34 27 33 33 30 35 37 40 42 44 48 49 49 48 48 50 49 50 51 52 54 54 55 55 56 57 58 60 59 58 58 57 57 58 59 60 60 60 60 60 60 60 58 57 57
41 35 24 23 21 25 33 30 32 37 41 41 43 43 46 48 48 49 49 48 48 48 49 51 50 51 51 52 53 52 53 54 55 56 56 55 55 55 55 55 55 54 54 55 56 56 55 56 55
35 34 26 18 20 26 33 26 31 42 44 45 45 45 46 47 48 47 47 48 48 49 49 50 49 49 50 51 51 51 52 52 52 53 53 53 52 51 51 52 52 52 53 53 53 52 52 52 53
35 30 36 28 23 25 26 32 39 44 44 45 45 45 43 44 45 48 48 48 48 48 48 49 49 48 49 48 49 49 50 50 50 50 50 49 49 50 50 50 50 51 51 51 50 50 49 51 51
36 39 29 26 17 16 25 28 29 37 39 42 42 43 44 46 46 47 47 48 49 48 48 49 49 48 48 48 48 48 47 48 48 49 48 48 48 48 48 47 47 47 48 49 50 49 49 48 48
32 31 32 31 27 21 19 24 36 38 39 40 41 43 43 44 45 46 47 48 48 48 48 48 48 48 48 48 47 46 46 46 46 46 45 46 45 46 46 45 45 45 45 46 45 45 44 43 42
33 29 31 24 24 26 27 25 40 39 41 42 41 43 43 43 44 45 46 46 47 47 47 46 46 46 46 47 45 44 45 45 44 44 44 44 43 44 44 44 44 43 43 43 43 41 41 41 39
MSLP
1014.13 1013.82 1013.58 1013.88 1015.62 1016.34 1015.73 1014.72 1013.63 1012.62 1011.74 1010.78 1010.61 1011.05 1011.39 1011.73 1012.55 1013.62 1012.53 1012.62 1012.72 1013.46 1013.97 1014.53 1014.99 1015.48 1015.97 1016.49 1016.95 1017.18 1017.44 1017.69 1017.85 1018.08 1018.30 1018.53 1018.74 1018.92 1019.13 1019.35 1019.49 1019.62 1019.77 1019.90 1020.01 1020.14 1020.32 1020.40 1020.42
1014.10 1013.96 1013.92 1014.91 1015.85 1016.47 1015.52 1014.08 1013.23 1011.91 1011.23 1010.88 1010.65 1010.92 1011.45 1011.84 1012.03 1012.56 1012.99 1012.78 1012.86 1013.25 1013.91 1014.60 1015.04 1015.48 1016.05 1016.59 1017.09 1017.37 1017.61 1017.83 1018.04 1018.23 1018.46 1018.70 1018.95 1019.18 1019.39 1019.58 1019.74 1019.81 1019.94 1020.13 1020.29 1020.48 1020.60 1020.66 1020.66
1014.00 1014.18 1014.94 1015.36 1015.66 1015.42 1014.93 1013.47 1012.20 1011.55 1011.04 1011.12 1010.92 1011.04 1011.13 1011.53 1011.94 1012.26 1012.27 1012.74 1012.89 1013.57 1014.05 1014.59 1015.14 1015.53 1016.02 1016.59 1017.09 1017.43 1017.71 1018.00 1018.24 1018.42 1018.65 1018.86 1019.08 1019.34 1019.54 1019.72 1019.89 1020.04 1020.15 1020.34 1020.53 1020.72 1020.83 1020.86 1020.86
1014.41 1014.69 1015.52 1015.54 1014.95 1014.03 1013.23 1012.53 1012.04 1011.63 1010.96 1011.05 1011.10 1011.28 1011.34 1011.19 1011.53 1011.73 1012.23 1012.81 1013.08 1013.77 1014.12 1014.78 1015.22 1015.66 1016.04 1016.57 1017.09 1017.50 1017.78 1018.10 1018.36 1018.57 1018.82 1019.06 1019.27 1019.48 1019.70 1019.95 1020.11 1020.27 1020.44 1020.59 1020.75 1020.89 1020.99 1021.03 1021.03
1014.98 1015.52 1015.72 1015.24 1014.13 1013.24 1012.23 1011.65 1011.65 1011.56 1011.31 1011.01 1011.34 1011.44 1011.68 1011.55 1011.68 1011.99 1012.37 1012.82 1013.35 1013.77 1014.28 1014.75 1015.33 1015.79 1016.20 1016.59 1017.13 1017.58 1017.90 1018.24 1018.48 1018.71 1018.97 1019.24 1019.51 1019.75 1019.93 1020.12 1020.31 1020.50 1020.64 1020.76 1020.90 1021.00 1021.07 1021.10 1021.10
1015.67 1015.73 1015.77 1014.61 1013.66 1012.67 1011.60 1010.99 1011.13 1011.14 1011.03 1011.03 1011.58 1011.81 1012.16 1012.14 1012.01 1012.63 1012.79 1013.26 1013.35 1013.88 1014.45 1014.67 1015.32 1015.94 1016.37 1016.78 1017.18 1017.61 1018.03 1018.38 1018.65 1018.81 1019.04 1019.29 1019.61 1019.76 1020.07 1020.30 1020.49 1020.64 1020.77 1020.86 1020.95 1021.04 1021.09 1021.09 1021.07
1016.08 1016.02 1014.63 1013.85 1012.81 1011.85 1010.67 1010.57 1010.58 1010.26 1010.66 1010.74 1010.85 1011.47 1012.35 1012.40 1012.42 1012.57 1013.10 1013.43 1013.79 1014.16 1014.48 1014.95 1015.29 1015.86 1016.47 1016.85 1017.29 1017.67 1018.04 1018.42 1018.69 1018.90 1019.15 1019.35 1019.48 1019.81 1020.19 1020.39 1020.58 1020.69 1020.80 1020.87 1020.93 1021.01 1021.07 1021.07 1021.00
1015.95 1015.69 1014.54 1012.85 1012.34 1009.51 1010.35 1010.20 1009.68 1009.80 1009.85 1010.15 1010.33 1011.22 1011.75 1011.82 1012.47 1012.78 1013.44 1013.74 1014.09 1014.47 1014.51 1015.10 1015.42 1015.90 1016.35 1016.95 1017.36 1017.78 1018.12 1018.46 1018.76 1018.99 1019.26 1019.51 1019.59 1019.83 1020.21 1020.48 1020.67 1020.74 1020.80 1020.86 1020.90 1020.95 1020.97 1020.98 1020.96
1015.64 1015.60 1013.34 1011.79 1012.56 1011.30 1010.36 1010.12 1009.51 1009.13 1009.47 1010.04 1010.49 1010.53 1010.97 1011.34 1012.31 1013.02 1013.69 1014.08 1014.26 1014.42 1014.53 1014.87 1015.30 1015.69 1016.35 1016.75 1017.43 1017.82 1018.15 1018.50 1018.84 1019.13 1019.39 1019.66 1019.97 1020.19 1020.41 1020.62 1020.76 1020.84 1020.87 1020.87 1020.88 1020.88 1020.88 1020.91 1020.96
1016.15 1015.14 1012.50 1012.69 1012.42 1012.02 1011.15 1010.53 1009.74 1009.53 1009.55 1010.07 1010.60 1010.70 1011.28 1011.80 1012.16 1012.62 1012.92 1013.46 1013.83 1014.02 1014.26 1014.78 1015.08 1015.65 1016.39 1016.79 1017.28 1017.83 1018.20 1018.54 1018.92 1019.21 1019.50 1019.78 1020.07 1020.27 1020.41 1020.60 1020.73 1020.85 1020.94 1020.98 1020.90 1020.82 1020.80 1020.83 1020.90
1015.97 1014.39 1013.81 1013.07 1012.53 1012.01 1011.40 1010.56 1009.87 1009.58 1009.67 1009.49 1009.86 1010.54 1011.36 1012.06 1012.33 1012.67 1012.90 1013.20 1013.49 1013.84 1014.22 1014.58 1015.28 1015.73 1016.33 1016.88 1017.37 1017.87 1018.22 1018.59 1018.92 1019.22 1019.52 1019.82 1020.09 1020.32 1020.45 1020.58 1020.62 1020.74 1020.83 1020.95 1020.92 1020.85 1020.84 1020.85 1020.84
1016.36 1014.73 1014.28 1013.61 1013.02 1012.82 1012.28 1011.60 1010.16 1009.69 1009.05 1008.90 1009.13 1010.41 1010.70 1011.56 1011.72 1011.95 1012.55 1012.81 1013.40 1013.69 1014.04 1014.69 1015.07 1015.54 1016.20 1016.83 1017.13 1017.73 1018.28 1018.58 1018.88 1019.07 1019.36 1019.74 1020.06 1020.29 1020.40 1020.48 1020.47 1020.59 1020.63 1020.73 1020.79 1020.78 1020.71 1020.69 1020.61
1016.33 1014.92 1014.57 1013.96 1013.60 1013.35 1012.88 1011.94 1010.92 1009.74 1009.45 1009.30 1009.27 1009.86 1010.92 1010.86 1011.19 1012.10 1012.57 1013.06 1013.61 1014.11 1014.30 1014.71 1015.12 1015.60 1015.69 1016.53 1017.13 1017.41 1018.04 1018.64 1018.82 1019.03 1019.23 1019.53 1019.85 1020.09 1020.23 1020.32 1020.41 1020.44 1020.52 1020.59 1020.64 1020.61 1020.56 1020.57 1020.50
1016.11 1015.34 1014.75 1014.25 1013.71 1013.44 1013.14 1012.50 1011.31 1010.33 1009.99 1009.75 1009.64 1009.75 1010.35 1010.76 1011.15 1011.87 1012.29 1012.83 1012.97 1013.86 1014.26 1014.57 1015.10 1015.55 1015.80 1016.35 1016.97 1017.45 1017.75 1018.16 1018.80 1019.07 1019.13 1019.33 1019.57 1019.81 1020.04 1020.15 1020.23 1020.23 1020.27 1020.31 1020.40 1020.43 1020.45 1020.40 1020.37
1016.50 1015.76 1014.86 1014.07 1013.44 1013.01 1013.29 1012.64 1011.41 1011.49 1010.59 1010.42 1010.00 1010.02 1010.49 1010.80 1011.22 1011.45 1011.91 1012.51 1012.96 1013.39 1014.03 1014.48 1014.98 1015.29 1015.93 1016.43 1016.79 1017.36 1017.74 1018.11 1018.39 1018.68 1018.92 1019.10 1019.30 1019.48 1019.66 1019.85 1019.94 1019.89 1019.96 1020.06 1020.12 1020.12 1020.16 1020.25 1020.10
1016.60 1015.58 1014.65 1012.51 1012.71 1012.60 1013.14 1012.76 1011.66 1011.15 1010.97 1010.69 1010.60 1010.78 1010.54 1010.83 1011.08 1011.67 1011.94 1012.41 1013.17 1013.38 1013.79 1014.47 1014.83 1015.46 1015.87 1016.23 1016.63 1017.13 1017.46 1017.81 1018.12 1018.41 1018.67 1018.81 1018.97 1019.14 1019.36 1019.48 1019.49 1019.44 1019.62 1019.73 1019.81 1019.91 1019.97 1020.03 1019.98
1016.20 1015.13 1014.17 1013.49 1012.27 1012.38 1012.84 1013.60 1012.41 1011.49 1011.12 1010.56 1011.20 1011.12 1011.13 1011.11 1011.34 1011.57 1011.97 1012.19 1012.62 1013.21 1013.48 1014.34 1014.76 1015.20 1015.72 1016.07 1016.31 1016.77 1017.17 1017.50 1017.66 1017.92 1018.23 1018.47 1018.65 1018.76 1018.98 1019.02 1018.95 1019.12 1019.30 1019.34 1019.47 1019.61 1019.71 1019.73 1019.58
1015.36 1014.81 1013.92 1013.03 1012.04 1012.21 1012.83 1012.92 1012.70 1011.79 1012.17 1011.94 1011.57 1011.35 1011.78 1011.58 1011.67 1011.82 1012.16 1012.43 1012.82 1013.14 1013.54 1013.93 1014.42 1014.93 1015.56 1015.92 1016.30 1016.64 1017.07 1017.22 1017.34 1017.51 1017.77 1017.91 1018.05 1018.19 1018.45 1018.63 1018.75 1018.83 1019.10 1019.21 1019.29 1019.37 1019.35 1019.35 1019.22
1015.02 1014.48 1013.78 1012.93 1012.01 1012.22 1012.55 1013.63 1013.17 1012.10 1013.47 1013.70 1012.60 1013.14 1012.39 1012.19 1012.12 1011.91 1012.14 1012.43 1012.82 1013.11 1013.59 1013.86 1014.41 1014.86 1015.47 1015.96 1016.37 1016.69 1016.92 1017.13 1017.28 1017.22 1017.20 1017.33 1017.50 1017.67 1017.93 1018.10 1018.20 1018.34 1018.57 1018.50 1018.67 1018.93 1019.04 1018.96 1018.74
1015.28 1014.21 1013.36 1012.33 1011.73 1011.56 1012.43 1013.32 1013.50 1014.06 1015.32 1015.61 1014.55 1014.38 1013.77 1013.68 1013.29 1012.65 1012.39 1012.53 1012.91 1013.01 1013.31 1013.82 1014.35 1014.80 1015.14 1015.47 1015.75 1016.02 1016.36 1016.62 1016.63 1016.64 1016.79 1016.87 1016.99 1017.04 1017.24 1017.39 1017.54 1017.61 1017.84 1018.03 1018.19 1018.41 1018.54 1018.47 1018.45
1015.02 1014.20 1013.10 1012.01 1012.19 1012.83 1013.19 1013.68 1014.53 1015.37 1014.95 1015.48 1014.42 1014.87 1014.70 1013.93 1013.29 1013.60 1013.31 1013.44 1013.50 1013.61 1013.75 1014.07 1014.60 1014.79 1015.06 1015.41 1015.65 1015.97 1016.16 1016.30 1016.38 1016.44 1016.50 1016.31 1016.24 1016.32 1016.54 1016.67 1016.85 1017.06 1017.30 1017.44 1017.55 1017.75 1018.10 1018.17 1018.11
1015.02 1014.44 1013.74 1013.01 1012.78 1013.86 1014.65 1015.31 1015.78 1016.16 1015.93 1015.44 1015.80 1015.66 1015.34 1015.20 1015.31 1014.84 1014.50 1014.47 1014.70 1014.60 1014.35 1014.56 1014.68 1015.00 1015.18 1015.34 1015.66 1015.84 1016.07 1016.21 1016.12 1016.09 1015.98 1015.87 1015.68 1015.94 1016.15 1016.22 1016.37 1016.51 1016.91 1017.18 1017.20 1017.29 1017.50 1017.63 1017.93
1015.63 1014.79 1014.51 1014.18 1014.02 1014.55 1015.33 1015.78 1016.98 1016.82 1016.99 1017.40 1016.86 1018.17 1016.76 1017.45 1015.42 1015.74 1015.74 1015.45 1015.57 1015.28 1015.48 1015.34 1015.57 1015.30 1015.45 1015.58 1015.71 1015.88 1016.00 1016.06 1016.00 1016.12 1016.18 1016.12 1015.97 1015.94 1016.12 1016.11 1016.16 1016.42 1016.69 1016.75 1017.03 1017.20 1017.36 1017.50 1017.71
1015.36 1014.96 1014.87 1014.54 1014.94 1015.72 1016.58 1016.63 1017.58 1017.44 1017.78 1018.29 1017.53 1016.54 1017.60 1016.86 1016.33 1016.08 1016.76 1015.83 1015.95 1015.66 1016.20 1016.09 1016.12 1016.37 1016.06 1016.03 1016.06 1016.06 1016.09 1016.10 1016.06 1016.10 1016.22 1016.38 1016.49 1016.40 1016.31 1016.41 1016.47 1016.47 1016.66 1016.91 1016.94 1017.09 1017.33 1017.42 1017.50
1015.58 1015.46 1015.67 1015.61 1016.19 1017.40 1017.33 1017.14 1017.84 1018.05 1018.22 1018.53 1018.61 1018.36 1017.76 1017.22 1016.74 1016.77 1016.42 1015.93 1016.21 1016.49 1016.34 1016.37 1016.59 1016.68 1016.84 1016.47 1016.61 1016.23 1016.14 1016.21 1016.36 1016.33 1016.26 1016.69 1016.39 1016.70 1016.77 1016.95 1017.12 1017.20 1017.06 1017.16 1017.19 1017.42 1017.46 1017.69 1017.86
1016.49 1016.58 1017.41 1018.00 1018.37 1018.29 1017.94 1018.60 1018.72 1018.64 1018.57 1018.50 1018.62 1018.82 1018.33 1017.84 1017.69 1017.58 1017.10 1016.83 1016.95 1017.11 1017.21 1017.15 1017.51 1017.23 1016.80 1016.73 1017.05 1016.63 1016.84 1016.50 1016.19 1016.38 1016.56 1016.80 1016.87 1016.97 1017.18 1017.37 1017.39 1017.49 1017.46 1017.54 1017.60 1017.83 1018.01 1018.07 1018.12
1017.08 1017.47 1017.85 1018.72 1019.54 1019.25 1019.70 1019.07 1018.38 1018.19 1018.35 1018.56 1018.94 1019.02 1018.82 1018.58 1018.85 1018.39 1017.90 1017.72 1017.75 1017.53 1017.39 1017.56 1017.17 1017.27 1016.85 1017.51 1017.60 1017.42 1017.38 1017.09 1016.99 1016.89 1016.85 1017.18 1017.29 1017.29 1017.29 1017.48 1017.75 1017.56 1017.67 1017.79 1018.03 1018.43 1018.47 1018.42 1018.64
1017.42 1017.72 1018.19 1018.88 1019.96 1020.39 1020.21 1019.60 1019.27 1019.05 1019.26 1019.13 1019.23 1019.38 1019.29 1019.36 1019.40 1019.11 1018.98 1018.64 1018.42 1018.14 1017.73 1017.17 1017.21 1017.73 1017.99 1017.83 1017.84 1017.84 1017.75 1017.55 1017.34 1017.23 1017.73 1017.87 1017.69 1017.78 1018.10 1018.14 1018.10 1018.07 1018.16 1018.18 1018.49 1018.74 1018.92 1019.02 1019.41
1018.52 1018.30 1018.77 1019.37 1020.14 1020.52 1020.71 1020.64 1019.72 1019.56 1019.53 1019.61 1019.71 1019.64 1019.58 1019.61 1019.76 1019.74 1019.52 1019.22 1018.90 1018.55 1018.36 1018.02 1018.13 1018.05 1018.09 1018.15 1017.86 1017.81 1017.95 1018.03 1018.16 1018.50 1018.77 1018.40 1018.37 1018.50 1018.50 1018.60 1018.61 1018.66 1018.65 1018.86 1019.00 1019.20 1019.46 1019.77 1020.15
1019.49 1019.45 1019.46 1019.63 1020.44 1020.44 1020.53 1020.81 1020.02 1019.85 1019.81 1019.80 1020.09 1020.18 1020.27 1020.26 1020.39 1020.20 1019.84 1019.34 1019.00 1018.75 1018.50 1018.38 1018.24 1018.08 1017.98 1017.84 1017.89 1018.12 1018.46 1018.66 1018.51 1018.49 1018.51 1018.81 1019.10 1019.04 1019.03 1019.27 1019.38 1019.42 1019.32 1019.51 1019.64 1019.97 1020.12 1020.40 1020.74
Wind_Speed
9 7 1 5 4 4 4 7 3 4 3 1 4 5 9 2 6 6 1 6 11 15 13 15 19 18 17 17 15 15 14 13 13 12 12 12 11 11 11 10 8 11 10 9 9 9 8 8 8
5 4 4 3 5 1 6 5 7 9 3 4 3 4 2 4 2 5 6 7 14 15 12 13 17 18 17 16 15 14 14 13 12 12 11 11 11 10 10 10 9 7 9 8 8 7 6 6 7
3 1 3 4 5 10 6 7 10 4 3 5 3 2 6 4 2 10 2 12 15 13 11 13 16 18 16 17 15 14 13 12 11 11 11 11 11 10 10 8 8 7 6 6 6 5 5 5 6
3 4 4 3 9 7 10 5 5 5 3 4 0 2 2 1 6 7 13 15 15 12 10 13 16 17 16 17 16 15 14 12 12 12 11 10 10 10 9 8 7 6 5 5 4 3 4 5 6
3 3 2 5 10 5 7 6 3 6 4 2 1 4 2 2 6 12 15 14 15 13 9 11 14 15 16 16 16 14 13 13 12 12 11 10 10 9 8 7 6 5 4 3 2 2 2 4 5
1 2 2 12 9 5 7 8 5 5 5 3 2 4 3 1 8 9 13 12 13 14 10 11 12 13 14 15 15 14 12 12 11 11 10 10 11 9 8 7 6 4 3 2 1 1 3 5 6
2 3 9 5 8 17 7 8 7 8 4 7 4 8 1 2 5 11 11 11 11 13 13 10 10 12 12 12 12 12 13 12 11 9 8 6 8 8 7 6 6 5 3 3 3 3 5 6 7
2 2 5 11 10 27 3 5 4 7 6 2 8 6 5 6 10 9 10 10 12 14 15 14 10 10 9 8 11 11 11 10 9 9 7 6 6 9 8 7 4 5 5 5 5 5 6 7 8
2 5 18 23 8 7 2 5 3 2 7 2 4 3 3 17 14 12 13 12 13 14 15 15 13 11 7 8 7 9 10 10 8 7 7 6 3 3 3 3 5 6 6 6 6 7 7 7 7
4 7 19 2 4 7 15 5 3 4 4 3 3 4 11 16 17 18 19 16 17 18 17 15 12 11 8 7 7 6 5 4 4 5 5 3 3 3 3 4 5 6 6 7 8 8 7 5 3
5 16 12 11 7 7 7 8 3 3 3 7 10 10 13 13 13 14 14 14 15 17 15 15 12 12 12 7 6 2 3 3 3 5 5 4 3 2 2 2 2 3 3 3 4 4 3 4 3
6 10 7 5 11 7 9 11 5 6 9 5 8 11 15 18 17 17 16 15 15 18 14 15 15 11 11 5 7 5 4 3 3 4 6 4 3 3 4 3 4 3 3 4 4 3 4 5 5
8 12 7 9 9 9 10 10 9 7 9 7 8 15 16 16 15 8 9 9 10 13 12 12 11 13 12 8 5 5 4 3 4 4 5 4 4 4 3 4 3 3 2 3 4 4 3 4 5
5 9 7 9 7 4 6 12 7 3 7 5 10 16 16 15 15 9 11 12 14 13 16 12 11 13 11 8 6 5 4 5 4 3 4 6 4 4 4 4 4 4 3 3 4 4 4 4 3
8 14 10 11 11 11 3 11 2 7 6 7 9 9 10 10 9 14 12 12 14 14 15 12 11 12 12 8 5 4 4 4 4 4 6 6 5 5 5 4 4 4 4 5 4 4 3 3 3
9 7 8 8 13 7 16 11 1 12 11 5 4 4 8 7 10 7 9 10 11 14 13 13 9 12 8 7 5 4 4 4 4 4 4 6 6 6 5 4 4 4 3 4 3 3 3 4 4
6 7 14 7 13 6 15 12 3 14 16 7 5 4 5 6 6 7 8 9 12 11 12 11 10 10 9 7 5 5 6 5 5 4 4 6 6 6 5 4 5 4 4 4 3 3 3 3 4
5 7 7 11 9 9 14 13 4 15 18 11 5 2 5 2 2 4 7 7 7 7 8 10 9 9 9 4 4 3 3 3 4 4 4 6 5 6 5 4 5 4 3 4 3 4 3 4 4
9 9 8 10 6 11 15 10 6 15 15 17 13 7 4 5 4 4 6 6 6 6 7 8 9 7 7 3 3 2 4 3 3 4 6 6 6 7 6 5 5 5 5 6 5 3 4 3 4
6 6 8 9 8 3 10 11 9 12 5 10 10 11 8 5 6 7 4 6 6 6 7 7 7 6 7 5 3 3 3 3 3 4 5 6 6 7 7 7 6 5 4 5 5 5 3 3 3
3 6 6 4 11 7 3 4 7 6 7 11 16 12 10 10 12 10 10 10 7 6 3 3 4 4 4 4 2 2 2 0 2 3 3 7 9 8 7 7 5 5 5 5 5 5 5 4 3
6 14 9 6 3 4 4 3 4 6 11 12 15 17 12 14 6 9 10 11 10 9 9 3 4 4 3 5 3 4 3 3 2 3 3 3 5 4 4 4 5 4 3 4 4 3 5 4 4
5 13 3 5 6 4 8 3 3 3 7 9 15 14 11 6 8 8 7 9 8 10 9 8 6 5 5 3 2 3 4 3 3 2 5 3 1 3 3 2 2 3 2 3 3 2 3 2 2
6 5 1 2 2 5 7 3 3 4 5 2 10 17 13 10 6 7 4 6 7 9 6 6 8 8 5 3 3 1 4 4 3 3 2 1 2 2 4 4 4 3 3 3 2 2 3 1 1
6 4 4 6 7 3 8 5 5 5 6 3 3 4 12 10 9 7 6 9 6 8 7 5 5 4 1 2 2 2 2 3 3 3 1 4 1 0 3 3 4 3 3 4 3 4 5 3 3
4 4 3 1 3 2 7 6 3 2 1 3 3 3 7 11 8 8 8 7 7 6 5 4 2 2 6 5 4 4 2 1 1 0 1 1 1 2 3 4 4 4 5 4 4 3 3 4 4
5 5 2 5 1 3 3 2 1 4 1 4 3 3 5 8 8 8 8 8 6 5 5 3 5 6 7 5 4 4 4 4 3 3 4 3 3 2 4 4 4 5 5 5 5 3 4 4 4
4 1 3 4 3 3 3 4 3 6 5 6 7 7 7 5 4 7 5 5 5 5 6 6 6 4 2 3 4 4 5 5 5 5 5 3 4 4 4 4 5 5 5 5 5 4 4 5 4
7 4 5 4 3 3 3 2 3 4 5 6 6 7 7 7 7 6 6 4 2 2 3 4 4 4 3 3 2 4 4 4 5 5 4 4 4 4 5 5 5 5 5 5 5 6 5 6 6
1 2 1 4 2 2 3 2 2 3 5 6 6 6 6 6 6 8 8 9 10 10 9 7 6 5 4 3 4 4 4 4 4 5 5 4 5 5 5 5 5 5 5 5 6 6 5 6 7
Wind_Direction
330 315 336 47 53 58 254 250 279 271 269 244 124 143 188 156 170 209 360 165 137 146 150 155 150 149 150 146 151 141 141 139 133 132 128 126 125 124 122 121 111 107 101 94 85 85 81 76 69
317 296 38 92 113 188 263 244 244 238 230 135 89 108 130 195 112 117 127 168 148 146 146 155 150 152 153 154 151 148 147 143 139 133 132 131 130 131 130 126 123 117 106 101 95 87 74 61 50
311 43 97 151 169 212 221 226 235 290 281 229 119 354 155 200 129 161 190 151 141 147 142 152 151 154 156 155 155 154 149 145 143 138 138 138 137 136 133 130 131 125 120 100 89 76 60 44 32
10 10 28 164 216 236 203 219 222 321 0 253 119 181 323 278 160 176 145 147 141 145 142 151 152 157 156 159 162 157 150 151 148 144 144 143 140 138 138 138 137 126 110 105 95 74 48 25 11
35 63 218 233 235 241 228 215 234 283 302 253 187 231 238 36 85 129 144 148 147 143 143 148 151 156 156 154 159 155 153 155 152 149 146 146 146 147 145 142 134 130 131 127 109 74 23 360 353
18 106 204 233 233 242 237 197 173 227 237 248 221 150 210 25 121 144 144 146 148 148 149 148 151 153 156 155 155 153 154 155 157 158 153 168 162 159 157 156 154 154 166 168 180 297 323 332 334
121 139 233 238 231 245 216 158 180 205 227 238 151 155 268 198 143 141 143 139 144 155 156 157 155 154 152 153 150 154 156 160 164 161 144 153 175 159 149 156 176 189 211 217 245 284 309 319 322
160 252 245 224 215 248 193 178 172 158 241 76 135 198 214 190 145 122 130 141 155 164 162 169 157 155 154 154 151 154 158 161 162 156 150 138 117 169 177 173 208 231 234 237 257 278 296 304 311
263 253 243 236 212 231 60 201 211 163 133 170 209 160 316 132 132 134 147 160 169 170 168 173 174 163 149 143 157 160 161 165 160 159 162 159 142 146 167 199 235 259 262 261 269 281 290 298 308
207 237 247 19 257 275 263 254 257 175 136 219 219 64 126 144 152 159 167 174 180 176 173 176 172 168 158 155 151 158 159 160 163 166 173 159 168 180 192 223 254 267 279 288 285 290 300 312 295
242 247 287 306 313 333 277 277 259 195 228 202 206 163 157 162 164 168 175 179 180 178 177 174 174 173 172 160 159 150 149 154 165 175 176 179 176 199 212 228 246 248 264 269 291 299 293 291 289
276 261 265 282 296 326 320 318 245 212 232 257 210 154 158 172 175 177 180 174 177 184 179 182 179 171 175 158 170 160 164 171 175 184 181 175 192 212 223 224 230 235 233 248 254 269 280 278 275
238 272 278 277 279 303 322 293 267 270 280 287 142 153 186 184 175 169 160 160 163 188 182 177 181 186 178 166 166 152 165 178 191 186 191 182 193 210 215 235 236 234 226 234 256 256 264 275 279
307 298 286 273 267 252 324 298 305 344 336 229 170 179 179 184 177 147 163 174 171 184 196 181 183 192 182 174 167 175 158 172 184 200 204 199 200 209 213 230 235 238 222 236 242 246 255 267 272
278 269 275 250 233 236 350 283 172 324 320 262 209 181 177 172 160 180 169 171 181 187 193 188 182 185 186 174 158 158 177 179 190 203 207 209 206 211 213 222 232 234 232 244 246 252 250 273 274
296 254 262 225 211 215 144 268 239 11 359 284 262 239 165 173 170 161 164 166 182 187 188 194 183 189 168 170 167 173 180 181 200 207 211 215 214 212 215 221 229 228 222 223 230 239 261 253 252
214 274 244 289 196 163 168 242 312 23 3 312 268 245 196 150 161 160 177 171 175 180 175 184 185 178 179 176 175 184 191 194 202 198 205 225 224 218 213 218 231 222 232 226 218 240 207 257 264
238 253 243 228 196 193 170 215 319 39 15 355 294 6 264 235 115 131 165 165 168 171 174 171 179 177 180 164 159 160 189 215 201 212 214 219 220 216 210 224 236 216 227 246 229 229 228 230 250
279 283 275 295 242 171 192 188 39 46 10 13 25 312 37 36 357 152 163 160 161 156 164 170 171 171 158 141 166 173 212 209 217 214 220 215 215 216 211 219 224 215 214 223 212 212 231 262 228
342 286 278 232 166 123 138 148 73 66 349 349 39 15 356 8 9 18 149 153 165 179 185 172 199 173 183 184 164 160 161 209 196 206 217 218 220 222 218 217 222 210 207 212 213 203 221 234 177
318 352 317 87 103 49 85 41 49 35 62 339 17 25 13 26 25 18 44 44 52 61 87 142 206 179 167 161 120 116 118 183 164 210 220 222 220 221 213 213 216 215 206 225 212 210 218 239 215
347 353 347 13 61 118 315 115 47 10 55 349 360 4 14 4 24 28 34 45 32 26 33 71 131 139 126 174 171 174 188 213 216 236 234 223 179 222 242 234 222 223 215 224 230 219 221 197 237
330 326 1 44 61 96 358 83 1 57 75 27 348 335 19 272 37 37 32 49 37 41 26 15 2 73 47 52 43 226 235 245 247 259 281 264 199 97 78 39 269 242 252 251 271 253 229 192 174
296 352 300 79 103 52 355 4 14 42 68 77 360 348 341 353 38 50 339 70 41 38 27 10 7 342 8 3 8 263 291 285 231 232 235 277 305 355 48 33 41 46 56 26 12 95 74 85 176
9 2 342 12 26 42 342 35 15 358 357 13 5 335 336 357 13 26 11 65 60 42 13 18 7 353 288 44 52 34 318 296 289 296 276 252 247 356 51 38 42 43 50 44 37 45 66 47 61
357 39 80 53 14 356 9 11 45 72 204 38 15 355 357 15 10 3 8 34 63 89 63 49 351 359 18 29 5 9 352 165 99 30 108 81 82 83 56 64 64 57 54 51 54 61 56 74 68
327 50 188 113 18 52 349 281 207 167 31 50 51 43 41 25 5 11 17 8 12 40 69 74 47 22 32 24 16 17 15 33 47 61 68 88 101 103 91 86 95 74 76 80 82 87 88 77 69
83 216 43 7 70 64 360 30 28 29 39 41 31 25 29 41 25 27 15 11 3 13 355 40 68 73 31 48 48 39 20 22 37 47 47 60 61 63 89 86 78 65 58 65 83 75 65 78 57
345 17 49 114 100 139 127 323 302 53 40 41 29 30 25 25 22 25 29 29 16 39 42 62 60 66 67 38 53 63 59 70 53 48 38 55 69 60 62 61 64 72 74 65 75 76 78 79 74
232 1 23 101 275 64 97 278 37 51 68 73 36 25 26 33 19 17 15 18 23 21 17 16 12 19 23 61 67 55 35 20 66 96 90 59 54 50 57 57 63 52 64 64 79 77 74 81 76